This is the latest recevied weather packets stored in our database for station/object K1RFS. If no packets are shown the sender has not sent any weather packets the latest 10 day(s).
| Time | Temp. | Humidity | Pressure | Rain* | Wind** | Luminosity | Snow |
|---|---|---|---|---|---|---|---|
| 1777842676 | 25.56° C | 14% | 998.1 hPa | 0 mm | - | 506 W/m² | - |
| 1777842373 | 25° C | 14% | 998.2 hPa | 0 mm | - | 512 W/m² | - |
| 1777842069 | 25° C | 14% | 998.2 hPa | 0 mm | - | 435 W/m² | - |
| 1777841765 | 25° C | 13% | 998.4 hPa | 0 mm | - | 404 W/m² | - |
| 1777841461 | 25.56° C | 13% | 998.4 hPa | 0 mm | - | 449 W/m² | - |
| 1777841158 | 25.56° C | 13% | 998.6 hPa | 0 mm | - | 497 W/m² | - |
| 1777840855 | 25.56° C | 13% | 998.8 hPa | 0 mm | - | 483 W/m² | - |
| 1777840552 | 25.56° C | 13% | 998.6 hPa | 0 mm | - | 564 W/m² | - |
| 1777840250 | 25.56° C | 14% | 998.5 hPa | 0 mm | - | 487 W/m² | - |
| 1777839947 | 25.56° C | 14% | 998.8 hPa | 0 mm | - | 442 W/m² | - |
| 1777839645 | 25° C | 14% | 998.9 hPa | 0 mm | - | 551 W/m² | - |
| 1777839343 | 25° C | 15% | 999.1 hPa | 0 mm | - | 397 W/m² | - |
| 1777839040 | 25° C | 14% | 999.2 hPa | 0 mm | - | 340 W/m² | - |
| 1777838736 | 25.56° C | 15% | 999.1 hPa | 0 mm | - | 343 W/m² | - |
| 1777838433 | 26.11° C | 14% | 999.4 hPa | 0 mm | - | 582 W/m² | - |
| 1777838130 | 25.56° C | 15% | 999.3 hPa | 0 mm | - | 645 W/m² | - |
| 1777837827 | 25° C | 17% | 999.4 hPa | 0 mm | - | 549 W/m² | - |
| 1777837524 | 25° C | 17% | 999.6 hPa | 0 mm | - | 438 W/m² | - |
| 1777837224 | 25.56° C | 17% | 999.4 hPa | 0 mm | - | 677 W/m² | - |
| 1777836921 | 25.56° C | 17% | 999.7 hPa | 0 mm | - | 449 W/m² | - |
| 1777836616 | 25.56° C | 18% | 999.6 hPa | 0 mm | - | 432 W/m² | - |
| 1777836312 | 25.56° C | 18% | 999.6 hPa | 0 mm | - | 743 W/m² | - |
| 1777836008 | 25.56° C | 18% | 999.6 hPa | 0 mm | - | 688 W/m² | - |
| 1777835705 | 24.44° C | 17% | 999.9 hPa | 0 mm | - | 592 W/m² | - |
| 1777835402 | 23.89° C | 18% | 999.7 hPa | 0 mm | - | 460 W/m² | - |
* Rain latest hour (hover to see other rain measurements)
** Current wind speed in m/s (hover to see current wind gust speed)